2018-097A (43751 NORAD) Tracking and Keplerian Element Data

This shows tracking and keplerian element data for the satellite.

Feedback or suggestion? Click here.




ElementValue
Catalog43751
Name2018-097A
Epoch Orbit128
Epoch Day344.46736944
Epoch Year2018
RAAN126.5743
Inclination82.5116
Eccentricity0.0015131
Argument of Perigee285.5539
Mean Anonmoly74.3865
Mean Motion12.42781872
Decay Rate-2.8E-07
L11 43751U 18097A 18344.46736944 -.00000028 00000-0 -27199-3 0 9991
L22 43751 82.5116 126.5743 0015131 285.5539 74.3865 12.42781872 1287

Live tracking and technical data element details for 2018-097A (NORAD 43751). 2018-097A can be tracked NOW for your location showing map with azimuth and elevation plus other details from your city location.

Track the satellite on the map from your city or location and see movement details for azimuth, elevation, latitude, longitude, range, height, and movement on the map or in text.







IsCatalogInMostPopularTable: catalog: 43751, numindb: 2
Update: records affected: 1



GetName: 43751 2018-097A

Hit Count: updated at: Tue, 11 Dec 2018 02:07:59 GMT